Simultaneous Nadir Overpasses (SNOs) Predictions

Prediction of SNOs between NOAA-19 and TERRA Satellite Orbit:

Table of predicted SNOs for the next 14.0 days since TLE Epoch: 5/20/2023
Index Date (NOAA-19) Time (NOAA-19) Lat,Lon (NOAA-19) SZA (NOAA-19 ) Date (TERRA) Time (TERRA) Lat,Lon (TERRA) SZA (TERRA ) Distance(km) Time Diff (sec)
1 05/20/2023 05:23:12 80.93, 133.54 62.72 05/20/2023 05:22:45 80.93, 133.35 62.69 3.30 27
2 05/22/2023 08:22:47 80.92, 87.92 62.21 05/22/2023 08:23:44 80.92, 88.01 62.24 1.60 57
3 05/22/2023 09:13:49 -80.92,-104.31 117.75 05/22/2023 09:13:06 -80.92,-104.31 117.76 0.11 43
4 05/24/2023 12:13:23 -80.92,-149.75 118.21 05/24/2023 12:14:05 -80.91,-149.74 118.20 0.82 42
5 05/24/2023 13:04:18 80.92, 17.91 61.83 05/24/2023 13:03:27 80.92, 18.02 61.81 1.98 51
6 05/26/2023 16:03:51 80.92, -27.07 61.43 05/26/2023 16:04:25 80.92, -27.22 61.43 2.58 34
7 05/26/2023 16:54:53 -80.92, 140.41 118.55 05/26/2023 16:53:47 -80.93, 140.54 118.56 2.36 66
8 05/28/2023 19:54:26 -80.92, 95.21 118.94 05/28/2023 19:54:45 -80.92, 95.22 118.93 0.62 19
9 05/28/2023 20:45:09 80.94, -92.31 61.60 05/28/2023 20:43:56 81.21, -93.18 61.68 33.26 73
10 05/30/2023 23:44:56 80.91,-142.65 60.70 05/30/2023 23:45:05 80.91,-142.57 60.71 1.48 9



Historial Predications of SNOs between NOAA-19 and TERRA
